www.pogodaiklimat.ru
ПОГОДА в Олонце
Время
(UTC), дата
18 12.10
00 13.10
03 13.10
06 13.10
09 13.10
12 13.10
15 13.10
18 13.10
21 13.10
00 14.10
03 14.10
06 14.10
09 14.10
12 14.10
15 14.10
18 14.10
21 14.10
00 15.10
03 15.10
06 15.10
09 15.10
12 15.10
15 15.10
18 15.10
21 15.10
00 16.10
03 16.10
06 16.10
09 16.10
12 16.10
15 16.10
18 16.10
21 16.10
00 17.10
06 17.10
09 17.10
12 17.10
15 17.10
18 17.10
21 17.10
00 18.10
06 18.10
09 18.10
12 18.10
15 18.10
18 18.10
21 18.10
00 19.10
03 19.10
06 19.10
12 19.10
Ветер
(напр.,м/с)
Видим. Явления Облачность Т
(С)
Тd
(С)
f
(%)
Тe
(С)
Тes
(С)
Комфортность P
(гПа)
Po
(гПа)
Тmin
(С)
Tmax
(С)
R
(мм)
R24
(мм)
S
(см)
З 6-11
{11}
7000 м слаб. дождь 10/10 240 м
[Frnb Ns]
+7.6 +6.9 95 +3 +3 по сезону 984.4 983.0 +9.9 18
З 6
{13}
10 км слаб. дождь 10/10 270 м
[Frnb Ns]
+7.7 +6.6 93 +3 +3 по сезону 992.8 991.3
З 5-11
{12}
50 км {дождь} 10/10 870 м
[Sc]
+7.0 +5.3 89 +3 +3 по сезону 995.9 994.4 +7.0 4
З 4 50 км {дождь} 10/10 930 м
[Sc]
+6.5 +4.8 89 +3 +3 по сезону 998.2 996.7 +6.5 4
З 4 50 км 5/5 600 м
[Sc Ac trans]
+7.5 +4.4 81 +4 +5 по сезону 1000.0 998.5
З 3 50 км 9/9 1080 м
[Sc Ac trans]
+7.8 +4.9 82 +5 +5 тепло 1002.1 1000.6
З 1 50 км в посл. час ливневой дождь 10/10 1110 м
[Cb cap]
+7.1 +4.7 85 +6 +6 тепло 1003.6 1002.1 0.0
СЗ 1 8000 м слаб. дождь 10/0 600 м
[As op]
+6.3 +5.7 96 +5 +5 тепло 1004.9 1003.4 +9.3 0.5
СЗ 2 7000 м слаб. дождь 10/0 630 м
[As op]
+5.6 +5.3 98 +3 +3 по сезону 1007.7 1006.2
З 3
{10}
50 км {дождь} 4/3 300 м
[Cb calv Ac lent]
+1.7 +0.4 91 -3 -3 прохладно 1011.0 1009.5
ЮЗ 1 50 км 3/3 600 м
[Sc diur, vesp Ac lent]
-0.1 -0.9 94 -2 -2 по сезону 1011.8 1010.3 -0.5 4
В 1 50 км 10/10 720 м
[Sc]
+0.7 +0.1 96 -1 -1 по сезону 1012.1 1010.6 -1.0 4
В 2 50 км 10/10 750 м
[Sc]
+3.7 +2.4 91 +1 +1 по сезону 1011.9 1010.4
В 2 50 км 10/0
[Ac As]
+4.5 +3.3 92 +2 +2 по сезону 1009.5 1008.0
СВ 2 50 км 10/0
[Ac As]
+3.5 +2.6 94 0 0 по сезону 1008.9 1007.4
С 2 50 км 10/0
[Ac As]
+1.7 +1.3 97 -2 -2 по сезону 1009.6 1008.1 +4.6
С 2 50 км 10/10 930 м
[Sc]
+2.4 +1.8 96 -1 -1 по сезону 1011.6 1010.1
СЗ 1 50 км 10/10 960 м
[Sc]
+2.1 +0.9 92 0 0 по сезону 1014.7 1013.2
СЗ 2 50 км 9/9 1140 м
[Sc]
+1.5 0.0 90 -2 -2 по сезону 1017.2 1015.7 +1.5
З 2 50 км 9/9 1300 м
[Sc]
+2.2 -0.4 83 -1 -1 по сезону 1019.2 1017.7 +1.3
СЗ 2 50 км 9/3 600 м
[Sc Ac trans]
+4.9 +0.7 74 +2 +3 по сезону 1021.3 1019.8
СЗ 3 50 км 9/9 1080 м
[Sc]
+5.0 -1.2 64 +2 +2 по сезону 1023.0 1021.5
СЗ 1 50 км 9/9 930 м
[Sc]
+4.1 +0.8 79 +3 +3 по сезону 1024.2 1022.7
З 1 50 км 10/10 960 м
[Sc]
+2.3 +0.5 88 +1 +1 по сезону 1025.2 1023.7 +6.0
В 1 50 км 10/10 900 м
[Sc]
+1.1 +0.6 96 -1 -1 по сезону 1025.6 1024.1
В 1 50 км 9/9 900 м
[Sc]
+0.2 -0.2 97 -2 -2 по сезону 1025.9 1024.3
В 2 50 км 10/10 480 м
[Sc]
+0.2 +0.1 99 -4 -4 прохладно 1025.2 1023.7 -0.4
ЮВ 2 6000 м слаб. дождь со снегом 10/10 270 м
[Frnb Ns]
+0.8 +0.4 97 -3 -3 прохладно 1024.2 1022.7 -0.4 0.3
В 3 5000 м слаб. снег {дождь} [диам. отлож. мокр. снега 2 мм] 10/0 1000 м
[As op]
+0.4 +0.4 100 -4 -4 прохладно 1022.3 1020.8
В 6
{10}
50 км в посл. час дождь 10/0
[Ac As]
+2.1 +0.6 90 -4 -4 прохладно 1018.1 1016.6
В 3 9000 м слаб. дождь [диам. отлож. мокр. снега 0 мм] 10/0 600 м
[As op]
+1.4 +1.1 98 -3 -3 прохладно 1016.3 1014.8 4
В 4 6000 м слаб. морось {дождь} 10/10 210 м
[St]
+1.6 +1.2 97 -4 -4 прохладно 1014.6 1013.1 +2.2 4
В 3 9000 м слаб. морось 10/10 210 м
[St]
+1.8 +1.2 96 -3 -3 прохладно 1013.8 1012.3
СВ 3 50 км {морось} 10/10 180 м
[St]
+2.0 +1.4 96 -2 -2 по сезону 1013.0 1011.5
СВ 4 50 км 10/10 300 м
[St]
+3.2 +1.9 91 -2 -2 по сезону 1013.5 1012.0 +1.6 0.0
В 5 50 км 10/10 330 м
[St]
+3.9 +1.8 86 -1 -1 по сезону 1013.7 1012.2
СВ 5
{10}
50 км 10/10 360 м
[St]
+3.7 +1.6 86 -1 -1 по сезону 1013.3 1011.8
СВ 5
{12}
50 км 10/10 210 м
[St]
+3.0 +1.4 89 -2 -2 по сезону 1013.3 1011.8
В 5
{10}
50 км 10/10 600 м
[Sc]
+3.1 +0.7 84 -2 -2 по сезону 1013.2 1011.7 +4.1
В 4 50 км 10/10 570 м
[Sc]
+2.9 +0.5 84 -2 -2 по сезону 1013.4 1011.9
В 3 50 км 10/10 630 м
[Sc]
+2.6 +0.6 87 -2 -2 по сезону 1014.0 1012.5
В 3 9000 м слаб. дождь 10/10 270 м
[Frnb Ns]
+2.3 +1.0 91 -2 -2 по сезону 1014.5 1013.0 +2.1 0.0
В 4 50 км {дождь} 10/10 300 м
[St]
+4.1 +1.9 86 -0 -0 по сезону 1015.2 1013.7
В 3 50 км {дождь} 10/10 400 м
[St]
+4.9 +2.4 84 +1 +1 по сезону 1015.0 1013.5
В 2 50 км 10/10 330 м
[St]
+4.4 +2.7 89 +2 +2 по сезону 1015.1 1013.6 0.0
В 2 6000 м слаб. морось 10/10 180 м
[St]
+3.6 +3.2 97 0 0 по сезону 1015.3 1013.8 +5.2 0.0
ЮВ 2 3000 м слаб. морось 10/10 120 м
[St]
+3.9 +3.9 100 +1 +1 по сезону 1015.2 1013.7
ЮВ 2 600 м туман ?/? +4.7 +4.7 100 +2 +2 по сезону 1014.5 1013.0
ЮВ 2 5000 м в посл. час туман 10/10 120 м
[St]
+5.7 +5.7 100 +3 +3 по сезону 1013.9 1012.4 +3.6 0.3
ЮВ 3 8000 м в посл. час морось {туман} 10/10 120 м
[St]
+7.0 +7.0 100 +4 +4 по сезону 1012.7 1011.2 +3.6 0.8
ЮВ 3 50 км {дождь, морось} 10/10 270 м
[St]
+11.7 +11.1 96 +10 +10 тепло 1009.9 1008.4
Местоположение метеостанции Олонец (Карелия, Россия): широта 60.98 долгота 32.98 высота над уровнем моря 12 м.
В архиве по умолчанию представлена погода в Олонце за последнюю неделю. Архивные данные за месяц целиком и за предыдущие месяцы, начиная с января 2011 года, Вы можете получить, выбрав интересующий диапазон дат из раскрывающегося списка и нажав кнопку "Найти!".
*Определитесь, кто Вы:
Внимание! Время в таблицах - всемирное. Для получения местного времени необходимо прибавить поправку, которая равна 3 ч.
Смотрите также архив погоды в соседних городах и на ближайших метеорологических станциях:
Партнеры нашего сайта:      
Пояснения к столбцам:
  • Ветер - указаны скорость ветра в м/с - средняя за 10 мин, порывы в срок и между сроками (в фигурных скобках) и направление, откуда дует ветер: С - северный,
  • СВ - северо-восточный, В - восточный, ЮВ - юго-восточный, Ю - южный, ЮЗ - юго-западный, З - западный, СЗ - северо-западный.
  • Видимость - горизонтальная дальность видимости в метрах или километрах. При видимости от 1 до 10 км при отсутствии осадков обычно наблюдается дымка, при ухудшении видимости до 1 км и менее - туман. В сухую погоду видимость может ухудшаться дымом, пылью или мглою.
  • Явления - указаны атмосферные явления, наблюдавшиеся в срок или в последний час перед сроком; фигурными скобками обозначены явления, наблюдавшиеся между сроками (за 1-3 часа до срока); квадратными скобками обозначены град или гололедные отложения с указанием их диаметра в мм.
  • Облачность - указаны через наклонную черту общая и нижняя облачность в баллах и высота нижней границы облаков в метрах; квадратными скобками обозначены формы облаков: Ci - перистые, Cs - перисто-слоистые, Cc - перисто-кучевые, Ac - высококучевые, As - высокослоистые, Sc - слоисто-кучевые, Ns - слоисто-дождевые, Cu - кучевые, Cb - кучево-дождевые. Подробнее классификацию облаков см. в Атласе облаков (PDF).
  • T - Температура воздуха - температура, измеренная на высоте 2 м над землей.
  • Td - Температура точки росы - температура, при понижении до которой содержащийся в воздухе водяной пар достигнет насыщения.
  • f - Относительная влажность воздуха - влажноcть воздуха, измеренная на высоте 2 м над землей.
  • Te - Эффективная температура - температура, которую ощущает одетый по сезону человек в тени. Характеристика душности погоды. При расчете учитывается влияние влажности воздуха и скорости ветра на теплоощущения человека.
  • Tes - Эффективная температура на солнце - температура, которую ощущает человек, с поправкой на солнечный нагрев. Характеристика знойности погоды. Зависит от высоты солнца над горизонтом, облачности и скорости ветра. Ночью, в пасмурную погоду, а также при ветре 12 м/с и более поправка равна нулю.
  • P - Атмосферное давление - приведенное к уровню моря атмосферное давление.
  • Po - Атмосферное давление - измеренное на уровне метеостанции атмосферное давление.
  • Tmin - Минимальная температура - минимум температуры воздуха на высоте 2 м над землей.
  • Tmax - Максимальная температура - максимум температуры воздуха на высоте 2 м над землей.
  • R - Количество осадков - Количество выпавших осадков за период времени, мм. При наведении курсора мыши на число - период времени, за который выпало указанное количество осадков.
  • R24 - Количество осадков - Количество выпавших осадков за 24 часа, мм.
  • S - Снежный покров - Высота снежного покрова, см. При наведении курсора мыши на число - состояние снежного покрова и степень покрытия местности в баллах.